Regional Weather Roundup
Issued by NWS

Home | Current Version | Previous Version | Graphics & Text | Print | Product List | Glossary On
Versions: 1 2 3 4 5 6 7 8 9 10 11 12 13 14 15 16 17 18 19 20 21 22 23 24 25 26 27
000
ASUS45 KBOU 221006
RWRCO

WEATHER ROUNDUP FOR COLORADO
NATIONAL WEATHER SERVICE DENVER/BOULDER CO
400 AM MDT TUE APR 22 2014

NOTE: "FAIR" INDICATES FEW OR NO CLOUDS BELOW 12000 FEET WITH NO
SIGNIFICANT WEATHER AND/OR OBSTRUCTIONS TO VISIBILITY.

COZ001>005-013-030-031-221100-
...NORTHWEST COLORADO...

CITY           SKY/WX    TMP DP  RH WIND       PRES   REMARKS
CRAIG          PTCLDY    35  31  85 SW3       30.06F
HAYDEN         PTCLDY    43  27  52 E13       30.10F
MEEKER         MOCLDY    42  32  67 NE5       30.07F
MOUNT WERNER   PTCLDY    45  18  33 S16G23    30.29F
STEAMBOAT SPGS PTCLDY    38  25  58 CALM      30.11F
WALDEN         PTCLDY    32  23  69 SE6       30.16F WCI  26
$$

COZ006>008-011-221100-
...WEST CENTRAL VALLEYS...

CITY           SKY/WX    TMP DP  RH WIND       PRES   REMARKS
GRAND JUNCTION MOCLDY    53  32  44 E20       29.99F
MONTROSE       CLEAR     51  29  42 SE9       30.09F
EAGLE          CLEAR     36  28  75 S3        30.18F
RIFLE          PTCLDY    42  31  64 SW3       30.08F
DELTA          NOT AVBL
NUCLA          NOT AVBL
$$

COZ017>023-064>068-221100-
...SOUTHWEST COLORADO...

CITY           SKY/WX    TMP DP  RH WIND       PRES   REMARKS
DURANGO        CLEAR     41  26  55 N10       30.18F
CORTEZ         CLEAR     37  28  70 CALM      30.11F
PAGOSA SPRINGS PTCLDY    38  26  61 CALM      30.25S
TELLURIDE      CLEAR     43  27  52 SE7       30.26F
WOLF CREEK PAS MOCLDY    32  21  64 SW17G23   30.41S WCI  21
$$

COZ009-010-012-014-032>034-037-058>063-221100-
...CENTRAL COLORADO...

CITY           SKY/WX    TMP DP  RH WIND       PRES   REMARKS
ASPEN          CLEAR     38  27  64 SW8       30.18F
BUENA VISTA    CLEAR     35  30  82 CALM      30.25S
COPPER MTN     CLEAR     37  21  52 S16G22    30.38S
BERTHOUD PASS  FAIR      32  21  64 W26G37    30.37F WCI  18
COTTONWOOD PAS CLEAR     41  30  65 CALM      30.29F
GUNNISON       CLEAR     34  25  69 NE3       30.28S
KREMMLING      PTCLDY    32  27  80 CALM      30.21S
LEADVILLE      CLEAR     26  22  84 E3        30.30F
MONARCH PASS   CLEAR     34  19  55 SW21      30.48F WCI  22
SALIDA         CLEAR     38  32  78 W3        30.31S
SUNLIGHT       CLEAR     39  28  65 CALM      30.31F
WILKERSON PASS CLEAR     32  30  93 SW10G18   30.35F WCI  24
$$

COZ069>075-221100-
...SAN LUIS VALLEY/SANGRE DE CRISTO MOUNTAINS...

CITY           SKY/WX    TMP DP  RH WIND       PRES   REMARKS
ALAMOSA        PTCLDY    38  28  67 SW10      30.23S
LA VETA PASS   PTCLDY    34  32  93 SW14G24   30.31F WCI  24
SAGUACHE       CLEAR     37  27  65 NW9       30.25F
$$

COZ035-036-038>040-221100-
...NORTHERN COLORADO FRONT RANGE...

CITY           SKY/WX    TMP DP  RH WIND       PRES   REMARKS
DENVER INTL AP PTCLDY    47  32  56 S10       30.05F
DMNS CITY PARK   N/A     55  34  45 S7G13     30.05S
AURORA         PTCLDY    50  32  50 S21       30.07F
FRONT RANGE AP NOT AVBL
ERIE MUNI ARPT PTCLDY    43  38  84 SE3       30.05F
BOULDER MUN AP PTCLDY    46  36  66 S3        30.05F
CENTENNIAL     PTCLDY    47  32  56 S13       30.09F
BROOMFIELD     PTCLDY    50  36  57 N5        30.07S
FORT COLLINS   MOCLDY    39  34  81 NW5       30.07F
LONGMONT       NOT AVBL
$$

COZ041-046-047-076>085-087-088-221100-
...PIKES PEAK/PALMER DIVIDE AND SOUTHERN FOOTHILLS...

CITY           SKY/WX    TMP DP  RH WIND       PRES   REMARKS
COLO. SPRINGS  PTCLDY    42  35  76 NE5       30.16F
A. F. ACADEMY  PTCLDY    35  30  81 N6        30.17F WCI  30
ELLICOTT       NOT AVBL
FALCON         PTCLDY    42  35  76 CALM      30.18F
FORT CARSON    CLEAR     41  32  70 NW7       30.14F
LIMON          CLEAR     44  35  70 SE13      30.15F
MONUMENT HILL  PTCLDY    37  36  93 S10       30.15F
TRINIDAD       PTCLDY    51  40  65 SW7       30.16F
$$

COZ042>045-048>051-090-091-221100-
...NORTHEAST COLORADO...

CITY           SKY/WX    TMP DP  RH WIND       PRES   REMARKS
GREELEY ARPT   MOCLDY    41  32  70 E5        30.05F
AKRON          CLEAR     45  32  60 SE16      30.09F
BURLINGTON     CLEAR     44  30  57 S14       30.14F
WRAY           PTCLDY    47  33  58 SE3       30.12S
STERLING       NOT AVBL
HOLYOKE        NOT AVBL
FORT MORGAN    NOT AVBL
$$

COZ086-089-092>099-221100-
...SOUTHEAST COLORADO...

CITY           SKY/WX    TMP DP  RH WIND       PRES   REMARKS
PUEBLO         CLEAR     45  38  76 CALM      30.11F
LA JUNTA       CLEAR     53  41  63 SE10      30.11F
LAMAR          CLEAR     45  34  65 NE6       30.13F
SPRINGFIELD      N/A     44  40  85 S7        30.18S
$$



USA.gov is the U.S. government's official web portal to all federal, state and local government web resources and services.